Llanes en Asturias

latitud = 43° 25' 13''N | longitud = 004° 44' 53''W
10 metros sobre el nivel del mar | datos mensuales

Fecha, hora, temperatura, viento dirección y velocidad, humedad y presión.

  • 25-09-2017 00:00:00 | 18.00°C | Noroeste |8.00 km/h | 75.00% | 1018.40 hPa
  • 24-09-2017 23:00:00 | 18.40°C | Oeste |7.00 km/h | 79.00% | 1020.50 hPa
  • 24-09-2017 22:00:00 | 18.70°C | Oeste |12.00 km/h | 84.00% | 1020.30 hPa
  • 24-09-2017 21:00:00 | 18.80°C | Oeste |5.00 km/h | 82.00% | 1018.50 hPa
  • 24-09-2017 20:00:00 | 19.70°C | Calma |0.00 km/h | 79.00% | 1017.60 hPa
  • 24-09-2017 19:00:00 | 20.00°C | Este |8.00 km/h | 78.00% | 1016.90 hPa
  • 24-09-2017 18:00:00 | 21.40°C | Este |5.00 km/h | 74.00% | 1017.00 hPa
  • 24-09-2017 17:00:00 | 21.60°C | Este |4.00 km/h | 72.00% | 1017.10 hPa
  • 24-09-2017 16:00:00 | 22.20°C | Este |11.00 km/h | 71.00% | 1016.70 hPa
  • 24-09-2017 15:00:00 | 22.40°C | Este |7.00 km/h | 71.00% | 1016.80 hPa
  • 24-09-2017 14:00:00 | 21.50°C | Este |12.00 km/h | 71.00% | 1016.90 hPa
  • 24-09-2017 13:00:00 | 20.90°C | Este |10.00 km/h | 66.00% | 1017.10 hPa
  • 24-09-2017 12:00:00 | 21.10°C | Este |5.00 km/h | 67.00% | 1017.60 hPa
  • 24-09-2017 11:00:00 | 19.40°C | Norte |2.00 km/h | 65.00% | 1017.50 hPa
  • 24-09-2017 10:00:00 | 16.10°C | Calma |0.00 km/h | 77.00% | 1017.40 hPa
  • 24-09-2017 09:00:00 | 13.60°C | Oeste |2.00 km/h | 74.00% | 1017.20 hPa
  • 24-09-2017 08:00:00 | 13.40°C | Sudoeste |10.00 km/h | 74.00% | 1017.10 hPa
  • 24-09-2017 07:00:00 | 13.90°C | Sudoeste |4.00 km/h | 76.00% | 1016.60 hPa
  • 24-09-2017 06:00:00 | 14.40°C | Sudoeste |10.00 km/h | 76.00% | 1017.00 hPa
  • 24-09-2017 05:00:00 | 14.20°C | Sudoeste |12.00 km/h | 76.00% | 1017.20 hPa
  • 24-09-2017 04:00:00 | 14.40°C | Oeste |9.00 km/h | 75.00% | 1017.60 hPa
  • 24-09-2017 03:00:00 | 14.90°C | Oeste |5.00 km/h | 76.00% | 1018.30 hPa
  • 24-09-2017 02:00:00 | 15.60°C | Oeste |3.00 km/h | 78.00% | 1018.30 hPa
  • 24-09-2017 01:00:00 | 16.10°C | Sudoeste |5.00 km/h | 78.00% | 1018.50 hPa